User: anonymous   Login
Location: Unspecified
(0.0000°N, 0.0000°E)
Time: 22:49:22
(UTC+00:00)
Language:

COSMOS 2463 - Orbit

View from above orbital plane
View from above orbital plane
View from above satellite
View from above satellite

Ground track
Ground track

The orbit data is extracted from the following two-line orbital elements,

1 36519U 10017A   23332.21572441  .00000108  00000-0  10256-3 0  9998
2 36519  82.9623 214.4046 0035684 194.1089 284.0482 13.71531266680170
Epoch (UTC): 28 November 2023 05:10:38
Eccentricity: 0.0035684
inclination: 82.9623°
perigee height: 968 km
apogee height: 1020 km
right ascension of ascending node: 214.4046°
argument of perigee: 194.1089°
revolutions per day: 13.71531266
mean anomaly at epoch: 284.0482°
orbit number at epoch: 68017

The dashed part of the orbit path shows where the satellite is in the earth's shadow,  

DLR